| time (UTC) | temp C | wind direction | speed KPH | gust KPH | rain 1hr cm | rain 24hr cm | rain mn cm | humidity % | barometer mb |
| 20260505193416 | 28 | 269 | 8.0 | 25.7 | 0.00 | 0.00 | 0.00 | 23 | 1007.8 |
| 20260505193110 | 28 | 186 | 6.4 | 25.7 | 0.00 | 0.00 | 0.00 | 22 | 1007.8 |
| 20260505192811 | 28 | 221 | 6.4 | 20.9 | 0.00 | 0.00 | 0.00 | 21 | 1007.9 |
| 20260505192506 | 28 | 295 | 6.4 | 24.1 | 0.00 | 0.00 | 0.00 | 21 | 1007.8 |
| 20260505192207 | 28 | 189 | 8.0 | 24.1 | 0.00 | 0.00 | 0.00 | 22 | 1008.0 |
| 20260505191901 | 28 | 279 | 8.0 | 24.1 | 0.00 | 0.00 | 0.00 | 25 | 1008.0 |
| 20260505191557 | 28 | 144 | 9.7 | 25.7 | 0.00 | 0.00 | 0.00 | 22 | 1008.1 |
| 20260505191250 | 28 | 208 | 8.0 | 25.7 | 0.00 | 0.00 | 0.00 | 24 | 1008.0 |
| 20260505190944 | 28 | 250 | 8.0 | 25.7 | 0.00 | 0.00 | 0.00 | 22 | 1008.0 |
| 20260505190642 | 28 | 193 | 8.0 | 25.7 | 0.00 | 0.00 | 0.00 | 22 | 1008.1 |
| 20260505190337 | 28 | 185 | 8.0 | 25.7 | 0.00 | 0.00 | 0.00 | 23 | 1008.1 |
| 20260505190023 | 28 | 207 | 9.7 | 25.7 | 0.00 | 0.00 | 0.00 | 22 | 1008.2 |
| 20260505185718 | 28 | 225 | 9.7 | 25.7 | 0.00 | 0.00 | 0.00 | 22 | 1008.2 |
| 20260505185000 | 28 | 219 | 8.0 | 22.5 | 0.00 | 0.00 | 0.00 | 23 | 1008.4 |
| 20260505184650 | 28 | 264 | 6.4 | 17.7 | 0.00 | 0.00 | 0.00 | 25 | 1008.5 |
| 20260505183924 | 28 | 200 | 4.8 | 27.4 | 0.00 | 0.00 | 0.00 | 22 | 1008.5 |
| 20260505183612 | 28 | 146 | 6.4 | 27.4 | 0.00 | 0.00 | 0.00 | 23 | 1008.6 |
| 20260505182424 | 28 | 259 | 6.4 | 24.1 | 0.00 | 0.00 | 0.00 | 24 | 1008.7 |
| 20260505182117 | 28 | 167 | 6.4 | 24.1 | 0.00 | 0.00 | 0.00 | 22 | 1008.7 |
| 20260505181810 | 28 | 200 | 8.0 | 24.1 | 0.00 | 0.00 | 0.00 | 21 | 1008.8 |
| 20260505181513 | 28 | 194 | 8.0 | 24.1 | 0.00 | 0.00 | 0.00 | 26 | 1008.7 |
| 20260505181215 | 28 | 219 | 9.7 | 24.1 | 0.00 | 0.00 | 0.00 | 23 | 1008.8 |
| 20260505180902 | 28 | 236 | 8.0 | 20.9 | 0.00 | 0.00 | 0.00 | 22 | 1008.9 |
| 20260505180603 | 28 | 225 | 8.0 | 20.9 | 0.00 | 0.00 | 0.00 | 24 | 1008.9 |
| 20260505175827 | 28 | 193 | 8.0 | 20.9 | 0.00 | 0.00 | 0.00 | 23 | 1009.0 |
| 20260505175519 | 28 | 287 | 6.4 | 20.9 | 0.00 | 0.00 | 0.00 | 24 | 1008.9 |
| 20260505175219 | 28 | 335 | 8.0 | 20.9 | 0.00 | 0.00 | 0.00 | 23 | 1008.9 |
| 20260505174907 | 28 | 23 | 6.4 | 17.7 | 0.00 | 0.00 | 0.00 | 26 | 1009.2 |
| 20260505174607 | 27 | 219 | 6.4 | 20.9 | 0.00 | 0.00 | 0.00 | 27 | 1008.9 |
| 20260505173849 | 27 | 195 | 8.0 | 20.9 | 0.00 | 0.00 | 0.00 | 20 | 1009.0 |
| 20260505173124 | 27 | 164 | 8.0 | 27.4 | 0.00 | 0.00 | 0.00 | 26 | 1009.1 |
| 20260505172828 | 27 | 146 | 8.0 | 27.4 | 0.00 | 0.00 | 0.00 | 25 | 1009.2 |
| 20260505172523 | 27 | 158 | 9.7 | 40.2 | 0.00 | 0.00 | 0.00 | 24 | 1009.1 |
| 20260505172220 | 27 | 227 | 8.0 | 40.2 | 0.00 | 0.00 | 0.00 | 23 | 1009.3 |
| 20260505171914 | 27 | 355 | 8.0 | 40.2 | 0.00 | 0.00 | 0.00 | 24 | 1009.2 |
| 20260505171611 | 27 | 236 | 9.7 | 40.2 | 0.00 | 0.00 | 0.00 | 23 | 1009.2 |
| 20260505171306 | 27 | 180 | 8.0 | 40.2 | 0.00 | 0.00 | 0.00 | 22 | 1009.4 |
| 20260505170536 | 28 | 228 | 6.4 | 32.2 | 0.00 | 0.00 | 0.00 | 22 | 1009.5 |
| 20260505170230 | 28 | 195 | 6.4 | 32.2 | 0.00 | 0.00 | 0.00 | 24 | 1009.4 |
| 20260505165925 | 28 | 209 | 8.0 | 32.2 | 0.00 | 0.00 | 0.00 | 26 | 1009.4 |
| 20260505165616 | 27 | 217 | 9.7 | 32.2 | 0.00 | 0.00 | 0.00 | 24 | 1009.4 |
| 20260505164853 | 27 | 228 | 9.7 | 30.6 | 0.00 | 0.00 | 0.00 | 23 | 1009.7 |
| 20260505164552 | 27 | 213 | 9.7 | 24.1 | 0.00 | 0.00 | 0.00 | 25 | 1009.7 |
| 20260505164245 | 27 | 164 | 9.7 | 24.1 | 0.00 | 0.00 | 0.00 | 24 | 1009.7 |
| 20260505163950 | 27 | 238 | 8.0 | 22.5 | 0.00 | 0.00 | 0.00 | 25 | 1009.8 |
| 20260505163644 | 27 | 229 | 6.4 | 22.5 | 0.00 | 0.00 | 0.00 | 25 | 1009.8 |
| 20260505163346 | 27 | 157 | 8.0 | 22.5 | 0.00 | 0.00 | 0.00 | 26 | 1009.8 |
| 20260505162629 | 27 | 254 | 9.7 | 41.8 | 0.00 | 0.00 | 0.00 | 28 | 1010.0 |
| 20260505162325 | 27 | 244 | 8.0 | 41.8 | 0.00 | 0.00 | 0.00 | 28 | 1010.0 |
| 20260505162016 | 27 | 123 | 6.4 | 41.8 | 0.00 | 0.00 | 0.00 | 29 | 1010.1 |
| 20260505161710 | 26 | 326 | 6.4 | 41.8 | 0.00 | 0.00 | 0.00 | 29 | 1010.2 |
| 20260505161410 | 26 | 246 | 8.0 | 41.8 | 0.00 | 0.00 | 0.00 | 30 | 1010.3 |
| 20260505161111 | 26 | 191 | 8.0 | 41.8 | 0.00 | 0.00 | 0.00 | 27 | 1010.6 |
| 20260505160813 | 26 | 232 | 9.7 | 25.7 | 0.00 | 0.00 | 0.00 | 29 | 1010.5 |
| 20260505160513 | 26 | 228 | 8.0 | 25.7 | 0.00 | 0.00 | 0.00 | 29 | 1010.4 |
| 20260505160200 | 26 | 304 | 8.0 | 25.7 | 0.00 | 0.00 | 0.00 | 28 | 1010.5 |
| 20260505153337 | 25 | 242 | 8.0 | 29.0 | 0.00 | 0.00 | 0.00 | 29 | 1010.4 |
| 20260505153041 | 25 | 275 | 8.0 | 27.4 | 0.00 | 0.00 | 0.00 | 30 | 1010.4 |
| 20260505152728 | 25 | 232 | 8.0 | 27.4 | 0.00 | 0.00 | 0.00 | 31 | 1010.4 |
| 20260505152419 | 25 | 239 | 6.4 | 22.5 | 0.00 | 0.00 | 0.00 | 31 | 1010.4 |
| 20260505151701 | 25 | 174 | 6.4 | 22.5 | 0.00 | 0.00 | 0.00 | 33 | 1010.4 |
| 20260505151400 | 25 | 227 | 4.8 | 22.5 | 0.00 | 0.00 | 0.00 | 31 | 1010.5 |
| 20260505151049 | 25 | 166 | 4.8 | 22.5 | 0.00 | 0.00 | 0.00 | 33 | 1010.5 |
| 20260505150742 | 25 | 227 | 4.8 | 22.5 | 0.00 | 0.00 | 0.00 | 32 | 1010.6 |
| 20260505150429 | 25 | 65 | 6.4 | 22.5 | 0.00 | 0.00 | 0.00 | 33 | 1010.5 |
| 20260505150122 | 25 | 312 | 6.4 | 22.5 | 0.00 | 0.00 | 0.00 | 32 | 1010.5 |
| 20260505140456 | 21 | 288 | 0.0 | 3.2 | 0.00 | 0.00 | 0.00 | 44 | 1010.9 |
| 20260505140150 | 21 | 318 | 0.0 | 3.2 | 0.00 | 0.00 | 0.00 | 44 | 1010.9 |
| 20260505130207 | 19 | 61 | 0.0 | 3.2 | 0.00 | 0.00 | 0.00 | 47 | 1011.3 |
| 20260505124940 | 18 | 138 | 0.0 | 3.2 | 0.00 | 0.00 | 0.00 | 49 | 1011.5 |
| 20260505124628 | 18 | 24 | 0.0 | 3.2 | 0.00 | 0.00 | 0.00 | 49 | 1011.6 |
| 20260505123907 | 18 | 28 | 1.6 | 3.2 | 0.00 | 0.00 | 0.00 | 51 | 1011.5 |
| 20260505123606 | 18 | 46 | 1.6 | 3.2 | 0.00 | 0.00 | 0.00 | 51 | 1011.5 |
| 20260505123257 | 17 | 28 | 1.6 | 6.4 | 0.00 | 0.00 | 0.00 | 52 | 1011.6 |
| 20260505122950 | 17 | 304 | 0.0 | 6.4 | 0.00 | 0.00 | 0.00 | 52 | 1011.5 |
| 20260505122647 | 17 | 302 | 0.0 | 6.4 | 0.00 | 0.00 | 0.00 | 52 | 1011.5 |
| 20260505122334 | 17 | 272 | 1.6 | 6.4 | 0.00 | 0.00 | 0.00 | 51 | 1011.6 |
| 20260505122033 | 17 | 138 | 1.6 | 6.4 | 0.00 | 0.00 | 0.00 | 51 | 1011.5 |
| 20260505121720 | 17 | 207 | 1.6 | 6.4 | 0.00 | 0.00 | 0.00 | 51 | 1011.5 |
| 20260505121424 | 17 | 311 | 1.6 | 6.4 | 0.00 | 0.00 | 0.00 | 52 | 1011.6 |
| 20260505121113 | 17 | 325 | 1.6 | 4.8 | 0.00 | 0.00 | 0.00 | 53 | 1011.6 |
| 20260505120355 | 16 | 292 | 1.6 | 4.8 | 0.00 | 0.00 | 0.00 | 54 | 1011.5 |
| 20260505120044 | 16 | 325 | 0.0 | 4.8 | 0.00 | 0.00 | 0.00 | 54 | 1011.5 |
| 20260505115731 | 16 | 313 | 0.0 | 4.8 | 0.00 | 0.00 | 0.00 | 55 | 1011.5 |
| 20260505115430 | 16 | 284 | 0.0 | 4.8 | 0.00 | 0.00 | 0.00 | 56 | 1011.5 |
| 20260505115119 | 16 | 275 | 0.0 | 4.8 | 0.00 | 0.00 | 0.00 | 57 | 1011.4 |
| 20260505114820 | 15 | 216 | 0.0 | 1.6 | 0.00 | 0.00 | 0.00 | 59 | 1011.3 |
| 20260505114511 | 15 | 320 | 0.0 | 1.6 | 0.00 | 0.00 | 0.00 | 58 | 1011.3 |
| 20260505114208 | 15 | 98 | 0.0 | 1.6 | 0.00 | 0.00 | 0.00 | 59 | 1011.4 |
| 20260505113909 | 14 | 164 | 0.0 | 0.0 | 0.00 | 0.00 | 0.00 | 60 | 1011.2 |
| 20260505113600 | 14 | 164 | 0.0 | 1.6 | 0.00 | 0.00 | 0.00 | 60 | 1011.3 |
| 20260505112840 | 13 | 305 | 0.0 | 0.0 | 0.00 | 0.00 | 0.00 | 62 | 1011.2 |
| 20260505112536 | 13 | 305 | 0.0 | 1.6 | 0.00 | 0.00 | 0.00 | 63 | 1011.2 |
| 20260505112223 | 13 | 305 | 0.0 | 0.0 | 0.00 | 0.00 | 0.00 | 63 | 1011.1 |
| 20260505111916 | 13 | 305 | 0.0 | 0.0 | 0.00 | 0.00 | 0.00 | 63 | 1011.1 |
| 20260505111617 | 13 | 305 | 0.0 | 0.0 | 0.00 | 0.00 | 0.00 | 63 | 1011.0 |
| 20260505111307 | 12 | 205 | 0.0 | 0.0 | 0.00 | 0.00 | 0.00 | 64 | 1011.0 |
| 20260505110957 | 12 | 202 | 0.0 | 1.6 | 0.00 | 0.00 | 0.00 | 64 | 1011.0 |
| 20260505110651 | 12 | 318 | 0.0 | 1.6 | 0.00 | 0.00 | 0.00 | 66 | 1011.0 |
| 20260505110346 | 12 | 190 | 0.0 | 0.0 | 0.00 | 0.00 | 0.00 | 66 | 1011.0 |
| 20260505101825 | 10 | 96 | 0.0 | 0.0 | 0.00 | 0.00 | 0.00 | 65 | 1010.8 |
| 20260505101526 | 10 | 96 | 0.0 | 0.0 | 0.00 | 0.00 | 0.00 | 65 | 1010.7 |
| 20260505101215 | 11 | 96 | 0.0 | 0.0 | 0.00 | 0.00 | 0.00 | 65 | 1010.7 |
| 20260505100456 | 11 | 94 | 0.0 | 1.6 | 0.00 | 0.00 | 0.00 | 66 | 1010.6 |
| 20260505100154 | 10 | 136 | 0.0 | 0.0 | 0.00 | 0.00 | 0.00 | 65 | 1010.8 |
| 20260505095852 | 10 | 138 | 0.0 | 0.0 | 0.00 | 0.00 | 0.00 | 65 | 1010.7 |
| 20260505095541 | 10 | 144 | 0.0 | 0.0 | 0.00 | 0.00 | 0.00 | 65 | 1010.6 |
| 20260505093949 | 11 | 196 | 0.0 | 0.0 | 0.00 | 0.00 | 0.00 | 65 | 1010.3 |
| 20260505093640 | 11 | 196 | 0.0 | 0.0 | 0.00 | 0.00 | 0.00 | 65 | 1010.4 |
| 20260505093332 | 11 | 196 | 0.0 | 0.0 | 0.00 | 0.00 | 0.00 | 65 | 1010.3 |
| 20260505093017 | 11 | 196 | 0.0 | 0.0 | 0.00 | 0.00 | 0.00 | 65 | 1010.3 |
| 20260505092717 | 11 | 191 | 0.0 | 0.0 | 0.00 | 0.00 | 0.00 | 65 | 1010.3 |
| 20260505092412 | 11 | 173 | 0.0 | 0.0 | 0.00 | 0.00 | 0.00 | 65 | 1010.2 |
| 20260505092101 | 11 | 180 | 0.0 | 0.0 | 0.00 | 0.00 | 0.00 | 65 | 1010.3 |
| 20260505091754 | 11 | 180 | 0.0 | 0.0 | 0.00 | 0.00 | 0.00 | 65 | 1010.4 |
| 20260505091033 | 11 | 198 | 0.0 | 0.0 | 0.00 | 0.00 | 0.00 | 65 | 1010.5 |
| 20260505090737 | 11 | 198 | 0.0 | 0.0 | 0.00 | 0.00 | 0.00 | 65 | 1010.3 |
| 20260505090429 | 11 | 198 | 0.0 | 0.0 | 0.00 | 0.00 | 0.00 | 65 | 1010.3 |
| 20260505090125 | 11 | 198 | 0.0 | 0.0 | 0.00 | 0.00 | 0.00 | 64 | 1010.4 |
| 20260505085405 | 11 | 198 | 0.0 | 0.0 | 0.00 | 0.00 | 0.00 | 64 | 1010.4 |
| 20260505085105 | 11 | 198 | 0.0 | 0.0 | 0.00 | 0.00 | 0.00 | 64 | 1010.5 |
| 20260505084342 | 11 | 198 | 0.0 | 0.0 | 0.00 | 0.00 | 0.00 | 64 | 1010.4 |
| 20260505084029 | 11 | 198 | 0.0 | 0.0 | 0.00 | 0.00 | 0.00 | 64 | 1010.5 |
| 20260505083722 | 11 | 198 | 0.0 | 0.0 | 0.00 | 0.00 | 0.00 | 64 | 1010.4 |
| 20260505083411 | 11 | 198 | 0.0 | 0.0 | 0.00 | 0.00 | 0.00 | 64 | 1010.4 |
| 20260505083112 | 11 | 198 | 0.0 | 0.0 | 0.00 | 0.00 | 0.00 | 64 | 1010.4 |
| 20260505082813 | 11 | 205 | 0.0 | 0.0 | 0.00 | 0.00 | 0.00 | 64 | 1010.4 |
| 20260505082100 | 12 | 257 | 0.0 | 0.0 | 0.00 | 0.00 | 0.00 | 64 | 1010.2 |
| 20260505081751 | 12 | 257 | 0.0 | 0.0 | 0.00 | 0.00 | 0.00 | 63 | 1010.2 |
| 20260505081450 | 12 | 257 | 0.0 | 0.0 | 0.00 | 0.00 | 0.00 | 63 | 1010.2 |
| 20260505081143 | 12 | 257 | 0.0 | 0.0 | 0.00 | 0.00 | 0.00 | 63 | 1010.2 |
| 20260505080844 | 12 | 257 | 0.0 | 0.0 | 0.00 | 0.00 | 0.00 | 62 | 1010.3 |
| 20260505080530 | 12 | 257 | 0.0 | 0.0 | 0.00 | 0.00 | 0.00 | 63 | 1010.4 |
| 20260505075806 | 12 | 257 | 0.0 | 0.0 | 0.00 | 0.00 | 0.00 | 62 | 1010.2 |
| 20260505075455 | 12 | 257 | 0.0 | 0.0 | 0.00 | 0.00 | 0.00 | 62 | 1010.1 |
| 20260505075143 | 12 | 257 | 0.0 | 0.0 | 0.00 | 0.00 | 0.00 | 62 | 1010.2 |
| 20260505074839 | 12 | 257 | 0.0 | 0.0 | 0.00 | 0.00 | 0.00 | 62 | 1010.1 |
| 20260505074117 | 12 | 257 | 0.0 | 0.0 | 0.00 | 0.00 | 0.00 | 61 | 1010.1 |
| 20260505073809 | 13 | 257 | 0.0 | 0.0 | 0.00 | 0.00 | 0.00 | 62 | 1010.1 |
| 20260505073458 | 13 | 257 | 0.0 | 0.0 | 0.00 | 0.00 | 0.00 | 61 | 1010.1 |
| 20260505073148 | 13 | 258 | 0.0 | 0.0 | 0.00 | 0.00 | 0.00 | 61 | 1010.0 |
| 20260505072840 | 13 | 339 | 0.0 | 0.0 | 0.00 | 0.00 | 0.00 | 61 | 1010.1 |
| 20260505072536 | 13 | 339 | 0.0 | 0.0 | 0.00 | 0.00 | 0.00 | 61 | 1010.0 |
| 20260505071757 | 13 | 342 | 0.0 | 0.0 | 0.00 | 0.00 | 0.00 | 60 | 1010.1 |
| 20260505071451 | 13 | 342 | 0.0 | 0.0 | 0.00 | 0.00 | 0.00 | 60 | 1010.0 |
| 20260505071140 | 13 | 342 | 0.0 | 0.0 | 0.00 | 0.00 | 0.00 | 60 | 1010.0 |
| 20260505070844 | 13 | 342 | 0.0 | 0.0 | 0.00 | 0.00 | 0.00 | 59 | 1010.0 |
| 20260505070533 | 13 | 342 | 0.0 | 0.0 | 0.00 | 0.00 | 0.00 | 59 | 1010.1 |
| 20260505070220 | 13 | 345 | 0.0 | 0.0 | 0.00 | 0.00 | 0.00 | 59 | 1010.1 |
| 20260505065912 | 13 | 286 | 0.0 | 0.0 | 0.00 | 0.00 | 0.00 | 59 | 1010.2 |
| 20260505065147 | 14 | 275 | 0.0 | 0.0 | 0.00 | 0.00 | 0.00 | 59 | 1010.1 |
| 20260505064845 | 14 | 275 | 0.0 | 0.0 | 0.00 | 0.00 | 0.00 | 59 | 1010.2 |
| 20260505064536 | 14 | 275 | 0.0 | 0.0 | 0.00 | 0.00 | 0.00 | 58 | 1010.2 |
| 20260505064224 | 14 | 275 | 0.0 | 0.0 | 0.00 | 0.00 | 0.00 | 58 | 1010.2 |
| 20260505063918 | 14 | 284 | 0.0 | 0.0 | 0.00 | 0.00 | 0.00 | 58 | 1010.2 |
| 20260505063612 | 14 | 284 | 0.0 | 0.0 | 0.00 | 0.00 | 0.00 | 58 | 1010.2 |
| 20260505062851 | 14 | 313 | 0.0 | 0.0 | 0.00 | 0.00 | 0.00 | 58 | 1010.3 |
| 20260505062546 | 14 | 313 | 0.0 | 0.0 | 0.00 | 0.00 | 0.00 | 58 | 1010.3 |
| 20260505062236 | 14 | 313 | 0.0 | 0.0 | 0.00 | 0.00 | 0.00 | 58 | 1010.2 |
| 20260505061519 | 14 | 306 | 0.0 | 0.0 | 0.00 | 0.00 | 0.00 | 58 | 1010.4 |
| 20260505061206 | 14 | 306 | 0.0 | 0.0 | 0.00 | 0.00 | 0.00 | 57 | 1010.3 |
| 20260505060902 | 14 | 306 | 0.0 | 0.0 | 0.00 | 0.00 | 0.00 | 57 | 1010.3 |
| 20260505060552 | 14 | 306 | 0.0 | 0.0 | 0.00 | 0.00 | 0.00 | 57 | 1010.5 |
| 20260505060248 | 14 | 306 | 0.0 | 0.0 | 0.00 | 0.00 | 0.00 | 57 | 1010.4 |
| 20260505055951 | 14 | 306 | 0.0 | 0.0 | 0.00 | 0.00 | 0.00 | 56 | 1010.5 |
| 20260505055642 | 14 | 315 | 0.0 | 0.0 | 0.00 | 0.00 | 0.00 | 56 | 1010.5 |
| 20260505055333 | 14 | 315 | 0.0 | 0.0 | 0.00 | 0.00 | 0.00 | 56 | 1010.5 |
| 20260505055034 | 14 | 315 | 0.0 | 0.0 | 0.00 | 0.00 | 0.00 | 56 | 1010.5 |
| 20260505054730 | 15 | 315 | 0.0 | 0.0 | 0.00 | 0.00 | 0.00 | 56 | 1010.4 |
| 20260505054420 | 14 | 315 | 0.0 | 0.0 | 0.00 | 0.00 | 0.00 | 56 | 1010.4 |
| 20260505054117 | 14 | 315 | 0.0 | 0.0 | 0.00 | 0.00 | 0.00 | 56 | 1010.3 |
| 20260505053811 | 14 | 315 | 0.0 | 0.0 | 0.00 | 0.00 | 0.00 | 56 | 1010.5 |
| 20260505053506 | 15 | 315 | 0.0 | 0.0 | 0.00 | 0.00 | 0.00 | 56 | 1010.3 |
| 20260505053201 | 15 | 315 | 0.0 | 0.0 | 0.00 | 0.00 | 0.00 | 56 | 1010.3 |
| 20260505052849 | 15 | 315 | 0.0 | 0.0 | 0.00 | 0.00 | 0.00 | 56 | 1010.2 |
| 20260505052549 | 15 | 315 | 0.0 | 0.0 | 0.00 | 0.00 | 0.00 | 56 | 1010.2 |
| 20260505052247 | 15 | 315 | 0.0 | 0.0 | 0.00 | 0.00 | 0.00 | 55 | 1010.2 |
| 20260505051948 | 15 | 315 | 0.0 | 0.0 | 0.00 | 0.00 | 0.00 | 55 | 1010.1 |
| 20260505051222 | 15 | 315 | 0.0 | 0.0 | 0.00 | 0.00 | 0.00 | 55 | 1010.2 |
| 20260505050909 | 15 | 315 | 0.0 | 0.0 | 0.00 | 0.00 | 0.00 | 54 | 1010.2 |
| 20260505050604 | 15 | 315 | 0.0 | 0.0 | 0.00 | 0.00 | 0.00 | 54 | 1010.2 |
| 20260505050304 | 15 | 315 | 0.0 | 0.0 | 0.00 | 0.00 | 0.00 | 54 | 1010.2 |
| 20260505041521 | 15 | 288 | 0.0 | 0.0 | 0.00 | 0.00 | 0.00 | 52 | 1009.9 |
| 20260505041222 | 15 | 288 | 0.0 | 1.6 | 0.00 | 0.00 | 0.00 | 52 | 1009.9 |
| 20260505040513 | 15 | 288 | 0.0 | 0.0 | 0.00 | 0.00 | 0.00 | 52 | 1009.9 |
| 20260505040209 | 15 | 288 | 0.0 | 0.0 | 0.00 | 0.00 | 0.00 | 52 | 1009.8 |
| 20260505035910 | 15 | 288 | 0.0 | 0.0 | 0.00 | 0.00 | 0.00 | 51 | 1009.8 |
| 20260505035605 | 15 | 288 | 0.0 | 0.0 | 0.00 | 0.00 | 0.00 | 52 | 1009.7 |
| 20260505035304 | 15 | 288 | 0.0 | 0.0 | 0.00 | 0.00 | 0.00 | 51 | 1009.7 |
| 20260505033729 | 15 | 288 | 0.0 | 0.0 | 0.00 | 0.00 | 0.00 | 50 | 1009.8 |
| 20260505033417 | 15 | 288 | 0.0 | 0.0 | 0.00 | 0.00 | 0.00 | 49 | 1009.8 |
| 20260505032642 | 15 | 288 | 0.0 | 0.0 | 0.00 | 0.00 | 0.00 | 48 | 1009.8 |
| 20260505032340 | 16 | 288 | 0.0 | 0.0 | 0.00 | 0.00 | 0.00 | 47 | 1009.7 |
| 20260505032035 | 16 | 288 | 0.0 | 0.0 | 0.00 | 0.00 | 0.00 | 47 | 1009.7 |
| 20260505031739 | 16 | 288 | 0.0 | 0.0 | 0.00 | 0.00 | 0.00 | 47 | 1009.8 |
| 20260505031426 | 16 | 288 | 0.0 | 0.0 | 0.00 | 0.00 | 0.00 | 46 | 1009.8 |
| 20260505031114 | 16 | 289 | 0.0 | 0.0 | 0.00 | 0.00 | 0.00 | 46 | 1009.7 |
| 20260505030802 | 16 | 289 | 0.0 | 0.0 | 0.00 | 0.00 | 0.00 | 45 | 1009.8 |
| 20260505030505 | 16 | 289 | 0.0 | 0.0 | 0.00 | 0.00 | 0.00 | 45 | 1009.8 |
| 20260505030157 | 16 | 289 | 0.0 | 0.0 | 0.00 | 0.00 | 0.00 | 44 | 1009.8 |
| 20260505025854 | 16 | 289 | 0.0 | 0.0 | 0.00 | 0.00 | 0.00 | 44 | 1009.8 |
| 20260505025137 | 17 | 298 | 0.0 | 0.0 | 0.00 | 0.00 | 0.00 | 43 | 1009.8 |
| 20260505024419 | 17 | 298 | 0.0 | 1.6 | 0.00 | 0.00 | 0.00 | 42 | 1009.8 |
| 20260505024115 | 17 | 298 | 0.0 | 1.6 | 0.00 | 0.00 | 0.00 | 42 | 1009.7 |
| 20260505023356 | 17 | 294 | 0.0 | 1.6 | 0.00 | 0.00 | 0.00 | 41 | 1009.7 |
| 20260505022637 | 18 | 240 | 0.0 | 3.2 | 0.00 | 0.00 | 0.00 | 40 | 1009.7 |
| 20260505022329 | 18 | 230 | 0.0 | 3.2 | 0.00 | 0.00 | 0.00 | 39 | 1009.7 |
| 20260505022020 | 18 | 230 | 0.0 | 3.2 | 0.00 | 0.00 | 0.00 | 38 | 1009.7 |
| 20260505021723 | 18 | 222 | 0.0 | 3.2 | 0.00 | 0.00 | 0.00 | 37 | 1009.6 |
| 20260505021423 | 18 | 220 | 0.0 | 1.6 | 0.00 | 0.00 | 0.00 | 37 | 1009.5 |
| 20260505021118 | 19 | 161 | 0.0 | 0.0 | 0.00 | 0.00 | 0.00 | 37 | 1009.4 |
| 20260505020815 | 19 | 163 | 0.0 | 0.0 | 0.00 | 0.00 | 0.00 | 36 | 1009.5 |
| 20260505020511 | 19 | 221 | 0.0 | 0.0 | 0.00 | 0.00 | 0.00 | 36 | 1009.6 |
| 20260505020212 | 19 | 221 | 0.0 | 9.7 | 0.00 | 0.00 | 0.00 | 35 | 1009.7 |
| 20260505015915 | 20 | 195 | 0.0 | 9.7 | 0.00 | 0.00 | 0.00 | 35 | 1009.7 |
| 20260505015610 | 20 | 190 | 1.6 | 12.9 | 0.00 | 0.00 | 0.00 | 35 | 1009.6 |
| 20260505015313 | 20 | 223 | 3.2 | 12.9 | 0.00 | 0.00 | 0.00 | 35 | 1009.7 |
| 20260505014542 | 20 | 200 | 0.0 | 17.7 | 0.00 | 0.00 | 0.00 | 34 | 1009.5 |
| 20260505014238 | 20 | 238 | 0.0 | 17.7 | 0.00 | 0.00 | 0.00 | 34 | 1009.5 |
| 20260505013935 | 20 | 286 | 1.6 | 17.7 | 0.00 | 0.00 | 0.00 | 34 | 1009.6 |
| 20260505013202 | 20 | 279 | 3.2 | 11.3 | 0.00 | 0.00 | 0.00 | 34 | 1009.5 |
| 20260505012902 | 20 | 218 | 1.6 | 11.3 | 0.00 | 0.00 | 0.00 | 34 | 1009.5 |
| 20260505012551 | 20 | 140 | 3.2 | 0.0 | 0.00 | 0.00 | 0.00 | 34 | 1009.4 |
| 20260505011821 | 20 | 246 | 4.8 | 20.9 | 0.00 | 0.00 | 0.00 | 34 | 1009.2 |
| 20260505011515 | 20 | 194 | 4.8 | 20.9 | 0.00 | 0.00 | 0.00 | 34 | 1009.1 |
| 20260505010749 | 20 | 140 | 4.8 | 20.9 | 0.00 | 0.00 | 0.00 | 34 | 1009.0 |
| 20260505010448 | 20 | 153 | 4.8 | 14.5 | 0.00 | 0.00 | 0.00 | 35 | 1009.0 |
| 20260505010145 | 20 | 198 | 3.2 | 14.5 | 0.00 | 0.00 | 0.00 | 34 | 1009.1 |
| 20260505005848 | 20 | 212 | 3.2 | 14.5 | 0.00 | 0.00 | 0.00 | 35 | 1009.1 |
| 20260505005538 | 20 | 207 | 3.2 | 14.5 | 0.00 | 0.00 | 0.00 | 35 | 1009.1 |
| 20260505005233 | 20 | 207 | 3.2 | 14.5 | 0.00 | 0.00 | 0.00 | 35 | 1009.2 |
| 20260505004921 | 20 | 208 | 3.2 | 14.5 | 0.00 | 0.00 | 0.00 | 34 | 1009.0 |
| 20260505004614 | 20 | 174 | 3.2 | 14.5 | 0.00 | 0.00 | 0.00 | 34 | 1009.0 |
| 20260505004312 | 20 | 154 | 1.6 | 14.5 | 0.00 | 0.00 | 0.00 | 34 | 1009.0 |
| 20260505004014 | 20 | 128 | 3.2 | 14.5 | 0.00 | 0.00 | 0.00 | 34 | 1008.9 |
| 20260505003700 | 20 | 87 | 3.2 | 14.5 | 0.00 | 0.00 | 0.00 | 34 | 1008.7 |
| 20260505003359 | 20 | 83 | 3.2 | 14.5 | 0.00 | 0.00 | 0.00 | 33 | 1008.8 |
| 20260505002643 | 20 | 132 | 3.2 | 12.9 | 0.00 | 0.00 | 0.00 | 33 | 1008.8 |
| 20260505002343 | 20 | 208 | 3.2 | 12.9 | 0.00 | 0.00 | 0.00 | 34 | 1008.8 |
| 20260505002047 | 20 | 193 | 3.2 | 11.3 | 0.00 | 0.00 | 0.00 | 33 | 1008.8 |
| 20260505001312 | 20 | 173 | 1.6 | 17.7 | 0.00 | 0.00 | 0.00 | 32 | 1008.8 |
| 20260505001009 | 20 | 122 | 1.6 | 17.7 | 0.00 | 0.00 | 0.00 | 32 | 1008.7 |
| 20260505000242 | 21 | 200 | 3.2 | 17.7 | 0.00 | 0.00 | 0.00 | 33 | 1008.8 |
| 20260504235944 | 21 | 269 | 3.2 | 17.7 | 0.00 | 0.00 | 0.00 | 33 | 1008.8 |
| 20260504235218 | 21 | 192 | 3.2 | 12.9 | 0.00 | 0.00 | 0.00 | 31 | 1008.7 |
| 20260504234922 | 21 | 200 | 3.2 | 17.7 | 0.00 | 0.00 | 0.00 | 31 | 1008.8 |
| 20260504234624 | 21 | 265 | 3.2 | 17.7 | 0.00 | 0.00 | 0.00 | 32 | 1008.7 |
| 20260504234311 | 21 | 136 | 3.2 | 17.7 | 0.00 | 0.00 | 0.00 | 32 | 1008.7 |
| 20260504233958 | 21 | 185 | 3.2 | 17.7 | 0.00 | 0.00 | 0.00 | 31 | 1008.7 |
| 20260504233657 | 21 | 183 | 3.2 | 17.7 | 0.00 | 0.00 | 0.00 | 31 | 1008.6 |
| 20260504233354 | 21 | 169 | 3.2 | 17.7 | 0.00 | 0.00 | 0.00 | 32 | 1008.6 |
| 20260504233041 | 21 | 185 | 3.2 | 17.7 | 0.00 | 0.00 | 0.00 | 30 | 1008.6 |
| 20260504232739 | 21 | 126 | 3.2 | 11.3 | 0.00 | 0.00 | 0.00 | 31 | 1008.6 |
| 20260504232437 | 21 | 156 | 3.2 | 11.3 | 0.00 | 0.00 | 0.00 | 30 | 1008.6 |
| 20260504232135 | 21 | 158 | 1.6 | 11.3 | 0.00 | 0.00 | 0.00 | 30 | 1008.6 |
| 20260504231831 | 22 | 45 | 3.2 | 14.5 | 0.00 | 0.00 | 0.00 | 30 | 1008.6 |
| 20260504231520 | 22 | 232 | 3.2 | 14.5 | 0.00 | 0.00 | 0.00 | 32 | 1008.6 |
| 20260504231219 | 22 | 217 | 3.2 | 14.5 | 0.00 | 0.00 | 0.00 | 31 | 1008.6 |
| 20260504230916 | 22 | 194 | 3.2 | 22.5 | 0.00 | 0.00 | 0.00 | 30 | 1008.6 |
| 20260504230608 | 22 | 123 | 3.2 | 22.5 | 0.00 | 0.00 | 0.00 | 31 | 1008.6 |
| 20260504230304 | 22 | 238 | 3.2 | 22.5 | 0.00 | 0.00 | 0.00 | 29 | 1008.7 |
| 20260504225959 | 22 | 134 | 4.8 | 22.5 | 0.00 | 0.00 | 0.00 | 29 | 1008.7 |
| 20260504225657 | 22 | 270 | 4.8 | 22.5 | 0.00 | 0.00 | 0.00 | 29 | 1008.8 |
| 20260504225344 | 22 | 191 | 4.8 | 22.5 | 0.00 | 0.00 | 0.00 | 29 | 1008.8 |
| 20260504225045 | 22 | 138 | 4.8 | 22.5 | 0.00 | 0.00 | 0.00 | 27 | 1008.9 |
| 20260504224731 | 22 | 140 | 3.2 | 14.5 | 0.00 | 0.00 | 0.00 | 28 | 1009.0 |
| 20260504224016 | 23 | 53 | 3.2 | 14.5 | 0.00 | 0.00 | 0.00 | 27 | 1009.0 |
| 20260504223713 | 23 | 175 | 3.2 | 24.1 | 0.00 | 0.00 | 0.00 | 27 | 1009.0 |
| 20260504223407 | 23 | 64 | 4.8 | 24.1 | 0.00 | 0.00 | 0.00 | 27 | 1008.9 |
| 20260504223111 | 23 | 189 | 6.4 | 24.1 | 0.00 | 0.00 | 0.00 | 26 | 1008.9 |
| 20260504222759 | 23 | 127 | 6.4 | 24.1 | 0.00 | 0.00 | 0.00 | 27 | 1009.0 |
| 20260504222455 | 23 | 178 | 6.4 | 24.1 | 0.00 | 0.00 | 0.00 | 26 | 1008.9 |
| 20260504222143 | 23 | 198 | 6.4 | 24.1 | 0.00 | 0.00 | 0.00 | 28 | 1008.9 |
| 20260504221842 | 23 | 202 | 4.8 | 20.9 | 0.00 | 0.00 | 0.00 | 27 | 1008.9 |
| 20260504221546 | 23 | 199 | 4.8 | 20.9 | 0.00 | 0.00 | 0.00 | 26 | 1008.9 |
| 20260504220830 | 23 | 191 | 3.2 | 22.5 | 0.00 | 0.00 | 0.00 | 24 | 1008.9 |
| 20260504220047 | 23 | 277 | 6.4 | 22.5 | 0.00 | 0.00 | 0.00 | 24 | 1008.9 |
| 20260504215744 | 24 | 226 | 8.0 | 22.5 | 0.00 | 0.00 | 0.00 | 24 | 1008.9 |
| 20260504215448 | 24 | 186 | 6.4 | 22.5 | 0.00 | 0.00 | 0.00 | 25 | 1008.8 |
| 20260504215148 | 24 | 209 | 6.4 | 20.9 | 0.00 | 0.00 | 0.00 | 25 | 1008.9 |
| 20260504214847 | 24 | 188 | 4.8 | 16.1 | 0.00 | 0.00 | 0.00 | 25 | 1008.8 |
| 20260504214548 | 24 | 192 | 4.8 | 16.1 | 0.00 | 0.00 | 0.00 | 24 | 1008.8 |
| 20260504214243 | 24 | 203 | 4.8 | 16.1 | 0.00 | 0.00 | 0.00 | 24 | 1008.8 |
| 20260504213110 | 24 | 236 | 6.4 | 22.5 | 0.00 | 0.00 | 0.00 | 26 | 1008.6 |
| 20260504212804 | 24 | 211 | 6.4 | 22.5 | 0.00 | 0.00 | 0.00 | 25 | 1008.7 |
| 20260504212457 | 24 | 221 | 6.4 | 22.5 | 0.00 | 0.00 | 0.00 | 24 | 1008.8 |
| 20260504212155 | 24 | 219 | 6.4 | 22.5 | 0.00 | 0.00 | 0.00 | 25 | 1008.9 |
| 20260504211847 | 24 | 157 | 4.8 | 22.5 | 0.00 | 0.00 | 0.00 | 22 | 1008.8 |
| 20260504211537 | 24 | 210 | 4.8 | 22.5 | 0.00 | 0.00 | 0.00 | 23 | 1008.6 |
| 20260504211224 | 24 | 223 | 4.8 | 22.5 | 0.00 | 0.00 | 0.00 | 23 | 1008.8 |
| 20260504210920 | 24 | 178 | 4.8 | 16.1 | 0.00 | 0.00 | 0.00 | 23 | 1008.7 |
| 20260504210609 | 24 | 229 | 6.4 | 16.1 | 0.00 | 0.00 | 0.00 | 23 | 1008.8 |
| 20260504210306 | 24 | 219 | 6.4 | 14.5 | 0.00 | 0.00 | 0.00 | 21 | 1008.7 |
| 20260504210004 | 24 | 192 | 6.4 | 14.5 | 0.00 | 0.00 | 0.00 | 23 | 1008.8 |
| 20260504205702 | 25 | 178 | 6.4 | 17.7 | 0.00 | 0.00 | 0.00 | 23 | 1008.8 |
| 20260504205348 | 25 | 171 | 4.8 | 17.7 | 0.00 | 0.00 | 0.00 | 23 | 1008.8 |
| 20260504205049 | 25 | 233 | 4.8 | 17.7 | 0.00 | 0.00 | 0.00 | 24 | 1008.9 |
| 20260504204739 | 25 | 225 | 6.4 | 17.7 | 0.00 | 0.00 | 0.00 | 22 | 1008.9 |
| 20260504204433 | 25 | 296 | 4.8 | 17.7 | 0.00 | 0.00 | 0.00 | 23 | 1008.8 |
| 20260504204125 | 24 | 127 | 6.4 | 17.7 | 0.00 | 0.00 | 0.00 | 22 | 1008.8 |
| 20260504203827 | 24 | 153 | 4.8 | 20.9 | 0.00 | 0.00 | 0.00 | 23 | 1008.8 |
| 20260504203513 | 24 | 233 | 6.4 | 20.9 | 0.00 | 0.00 | 0.00 | 21 | 1008.8 |
| 20260504203209 | 24 | 224 | 4.8 | 20.9 | 0.00 | 0.00 | 0.00 | 23 | 1008.9 |
| 20260504202905 | 24 | 197 | 4.8 | 20.9 | 0.00 | 0.00 | 0.00 | 21 | 1009.0 |
| 20260504202604 | 24 | 243 | 4.8 | 20.9 | 0.00 | 0.00 | 0.00 | 21 | 1009.0 |
| 20260504202257 | 24 | 264 | 4.8 | 20.9 | 0.00 | 0.00 | 0.00 | 22 | 1009.0 |
| 20260504202000 | 24 | 320 | 4.8 | 20.9 | 0.00 | 0.00 | 0.00 | 22 | 1009.1 |
| 20260504201648 | 24 | 181 | 4.8 | 20.9 | 0.00 | 0.00 | 0.00 | 23 | 1009.1 |
| 20260504201338 | 24 | 180 | 6.4 | 20.9 | 0.00 | 0.00 | 0.00 | 23 | 1009.1 |
| 20260504201026 | 24 | 179 | 6.4 | 20.9 | 0.00 | 0.00 | 0.00 | 21 | 1009.2 |
| 20260504200716 | 24 | 171 | 6.4 | 27.4 | 0.00 | 0.00 | 0.00 | 21 | 1009.3 |
| 20260504200418 | 24 | 173 | 6.4 | 27.4 | 0.00 | 0.00 | 0.00 | 22 | 1009.3 |
| 20260504200110 | 24 | 197 | 6.4 | 27.4 | 0.00 | 0.00 | 0.00 | 22 | 1009.4 |
| 20260504195805 | 24 | 237 | 6.4 | 27.4 | 0.00 | 0.00 | 0.00 | 21 | 1009.4 |
| 20260504195055 | 24 | 199 | 6.4 | 27.4 | 0.00 | 0.00 | 0.00 | 22 | 1009.5 |
| 20260504194752 | 24 | 259 | 4.8 | 24.1 | 0.00 | 0.00 | 0.00 | 22 | 1009.5 |
| 20260504194021 | 24 | 185 | 6.4 | 24.1 | 0.00 | 0.00 | 0.00 | 22 | 1009.6 |